Location: Arborea
(39.7744°N, 8.5819°E)
Time: 03:49:09
(UTC+00:00)

Cosmos 1953 - Pass Details

Date: 04 June 2022
Orbit: 533 x 555 km, 82.5° (Epoch: 04 July)

Event Time Altitude Azimuth Distance (km) Brightness Sun altitude
Rises 22:45:48 0° 354° (N) 2,706 7.2 -27.1°
Reaches altitude 10° 22:47:59 10° 356° (N) 1,806 5.9 -27.1°
Enters shadow 22:50:41 41° 8° (N) 788 3.5 -27.2°
